Change the Weather History Date:

Tuesday, June 25, 2013

  Actual Average Record
Temperature  
Mean Temperature 65 °F -  
Max Temperature 77 °F 82 °F 82 °F (2011)
Min Temperature 53 °F 53 °F 46 °F (2012)
Growing Degree Days 15 (Base 50)    
Moisture  
Dew Point 50 °F    
Average Humidity 59    
Maximum Humidity 88    
Minimum Humidity 36    
Precipitation  
Precipitation 0.00 in - - ()
Sea Level Pressure  
Sea Level Pressure 30.07 in    
Wind  
Wind Speed 14 mph (NW)    
Max Wind Speed 23 mph    
Max Gust Speed 31 mph    
Visibility 10 miles    
Events      
Averages and records for this station are not official NWS values.
T = Trace of Precipitation, MM = Missing Value Source: NWS Daily Summary

Daily Weather History Graph

Daily Weather History Graph

Search for Another Location

Airport or City:

Trip Planner

Search our weather history database for the weather conditions in past years. The results will help you decide how hot, cold, wet, or windy it might be!

Date:

Astronomy

Jun. 25, 2013 Rise Set
Actual Time 5:40 AM PDT 8:12 PM PDT
Civil Twilight 5:11 AM PDT 8:41 PM PDT
Nautical Twilight 4:34 AM PDT 9:18 PM PDT
Astronomical Twilight 3:53 AM PDT 9:59 PM PDT
Moon 10:08 PM PDT (6/25) 8:20 AM PDT (6/25)
Length of Visible Light 15h 30m
Length of Day
14h 31m
Waning Gibbous, 92% of the Moon is Illuminated
Jun 25
Waning Gibbous
Jun 29
Last Quarter
Jul 8
New
Jul 15
First Quarter
Jul 22
Full

Hourly Weather History & Observations

Time (PDT) Temp. Dew Point Humidity Pressure Visibility Wind Dir Wind Speed Gust Speed Precip Events Conditions
12:15 AM 57.2 °F 48.2 °F 72% 30.02 in 10.0 mi NW 12.7 mph - N/A   Clear
12:35 AM 57.2 °F 48.2 °F 72% 30.02 in 10.0 mi WNW 10.4 mph - N/A   Clear
12:55 AM 57.2 °F 48.2 °F 72% 30.02 in 10.0 mi West 11.5 mph - N/A   Clear
1:15 AM 57.2 °F 48.2 °F 72% 30.02 in 10.0 mi West 12.7 mph - N/A   Clear
1:35 AM 55.4 °F 50.0 °F 82% 30.02 in 10.0 mi West 11.5 mph - N/A   Clear
1:55 AM 55.4 °F 50.0 °F 82% 30.02 in 10.0 mi West 12.7 mph - N/A   Clear
2:15 AM 55.4 °F 50.0 °F 82% 30.03 in 10.0 mi West 10.4 mph - N/A   Clear
2:35 AM 55.4 °F 50.0 °F 82% 30.03 in 10.0 mi West 11.5 mph - N/A   Clear
2:55 AM 55.4 °F 50.0 °F 82% 30.03 in 10.0 mi West 13.8 mph - N/A   Clear
3:15 AM 55.4 °F 50.0 °F 82% 30.03 in 10.0 mi West 12.7 mph - N/A   Clear
3:35 AM 55.4 °F 50.0 °F 82% 30.03 in 10.0 mi WNW 11.5 mph 19.6 mph N/A   Clear
3:55 AM 55.4 °F 51.8 °F 88% 30.03 in 10.0 mi WNW 10.4 mph - N/A   Clear
4:15 AM 55.4 °F 50.0 °F 82% 30.04 in 10.0 mi WNW 11.5 mph - N/A   Clear
4:35 AM 55.4 °F 51.8 °F 88% 30.04 in 10.0 mi West 12.7 mph - N/A   Partly Cloudy
4:55 AM 55.4 °F 51.8 °F 88% 30.04 in 10.0 mi WNW 11.5 mph - N/A   Mostly Cloudy
5:15 AM 55.4 °F 50.0 °F 82% 30.04 in 10.0 mi NW 6.9 mph - N/A   Overcast
5:35 AM 55.4 °F 50.0 °F 82% 30.04 in 10.0 mi WNW 10.4 mph - N/A   Overcast
5:55 AM 53.6 °F 50.0 °F 88% 30.05 in 10.0 mi NW 11.5 mph - N/A   Mostly Cloudy
6:15 AM 55.4 °F 50.0 °F 82% 30.05 in 10.0 mi WNW 10.4 mph - N/A   Partly Cloudy
6:35 AM 55.4 °F 50.0 °F 82% 30.05 in 10.0 mi NW 10.4 mph - N/A   Clear
6:55 AM 57.2 °F 51.8 °F 82% 30.04 in 10.0 mi NW 13.8 mph - N/A   Clear
7:15 AM 57.2 °F 51.8 °F 82% 30.05 in 10.0 mi NW 12.7 mph - N/A   Clear
7:35 AM 59.0 °F 53.6 °F 82% 30.06 in 10.0 mi NW 13.8 mph - N/A   Clear
7:55 AM 60.8 °F 53.6 °F 77% 30.07 in 10.0 mi WNW 15.0 mph - N/A   Clear
8:15 AM 62.6 °F 53.6 °F 72% 30.07 in 10.0 mi NW 13.8 mph - N/A   Clear
8:35 AM 64.4 °F 53.6 °F 68% 30.08 in 10.0 mi NW 13.8 mph - N/A   Clear
8:55 AM 64.4 °F 53.6 °F 68% 30.09 in 10.0 mi NW 13.8 mph 19.6 mph N/A   Clear
9:15 AM 66.2 °F 53.6 °F 64% 30.10 in 10.0 mi NW 13.8 mph - N/A   Clear
9:35 AM 66.2 °F 53.6 °F 64% 30.10 in 10.0 mi NW 15.0 mph - N/A   Clear
9:55 AM 68.0 °F 51.8 °F 56% 30.10 in 10.0 mi NW 16.1 mph 19.6 mph N/A   Clear
10:15 AM 69.8 °F 50.0 °F 49% 30.09 in 10.0 mi NNW 16.1 mph 21.9 mph N/A   Clear
10:35 AM 71.6 °F 50.0 °F 46% 30.09 in 10.0 mi NW 20.7 mph 24.2 mph N/A   Clear
10:55 AM 71.6 °F 50.0 °F 46% 30.10 in 10.0 mi NW 19.6 mph 24.2 mph N/A   Clear
11:15 AM 73.4 °F 50.0 °F 44% 30.09 in 10.0 mi NNW 19.6 mph 23.0 mph N/A   Clear
11:35 AM 75.2 °F 48.2 °F 38% 30.09 in 10.0 mi NW 20.7 mph 27.6 mph N/A   Clear
11:55 AM 75.2 °F 48.2 °F 38% 30.10 in 10.0 mi NW 18.4 mph 25.3 mph N/A   Clear
12:15 PM 75.2 °F 48.2 °F 38% 30.10 in 10.0 mi NW 19.6 mph 27.6 mph N/A   Clear
12:35 PM 75.2 °F 48.2 °F 38% 30.10 in 10.0 mi NW 21.9 mph - N/A   Clear
12:55 PM 77.0 °F 48.2 °F 36% 30.10 in 10.0 mi NW 17.3 mph 25.3 mph N/A   Clear
1:15 PM 77.0 °F 50.0 °F 39% 30.10 in 10.0 mi NW 18.4 mph 25.3 mph N/A   Clear
1:35 PM 77.0 °F 48.2 °F 36% 30.10 in 10.0 mi WNW 21.9 mph 29.9 mph N/A   Clear
1:55 PM 77.0 °F 48.2 °F 36% 30.09 in 10.0 mi NW 19.6 mph 26.5 mph N/A   Clear
2:15 PM 77.0 °F 48.2 °F 36% 30.09 in 10.0 mi NW 21.9 mph 27.6 mph N/A   Clear
2:35 PM 77.0 °F 48.2 °F 36% 30.09 in 10.0 mi NW 21.9 mph 28.8 mph N/A   Clear
2:55 PM 77.0 °F 48.2 °F 36% 30.08 in 10.0 mi NW 21.9 mph 27.6 mph N/A   Clear
3:15 PM 77.0 °F 50.0 °F 39% 30.08 in 10.0 mi NW 20.7 mph 28.8 mph N/A   Clear
3:35 PM 77.0 °F 50.0 °F 39% 30.08 in 10.0 mi NW 20.7 mph 27.6 mph N/A   Clear
3:55 PM 77.0 °F 50.0 °F 39% 30.07 in 10.0 mi NNW 20.7 mph 28.8 mph N/A   Clear
4:15 PM 77.0 °F 50.0 °F 39% 30.07 in 10.0 mi NW 19.6 mph 29.9 mph N/A   Clear
4:35 PM 77.0 °F 50.0 °F 39% 30.07 in 10.0 mi NW 20.7 mph 26.5 mph N/A   Clear
4:55 PM 77.0 °F 50.0 °F 39% 30.06 in 10.0 mi NW 21.9 mph 29.9 mph N/A   Clear
5:15 PM 77.0 °F 50.0 °F 39% 30.06 in 10.0 mi NW 20.7 mph 28.8 mph N/A   Clear
5:35 PM 77.0 °F 50.0 °F 39% 30.06 in 10.0 mi NW 20.7 mph 28.8 mph N/A   Clear
5:55 PM 77.0 °F 50.0 °F 39% 30.05 in 10.0 mi NW 23.0 mph 29.9 mph N/A   Clear
6:15 PM 75.2 °F 50.0 °F 41% 30.05 in 10.0 mi NW 21.9 mph 31.1 mph N/A   Clear
6:35 PM 75.2 °F 50.0 °F 41% 30.06 in 10.0 mi NW 19.6 mph 27.6 mph N/A   Clear
6:55 PM 75.2 °F 50.0 °F 41% 30.05 in 10.0 mi NW 20.7 mph 27.6 mph N/A   Clear
7:15 PM 73.4 °F 50.0 °F 44% 30.05 in 10.0 mi NW 19.6 mph 27.6 mph N/A   Clear
7:35 PM 73.4 °F 50.0 °F 44% 30.05 in 10.0 mi WNW 19.6 mph 27.6 mph N/A   Clear
7:55 PM 71.6 °F 50.0 °F 46% 30.06 in 10.0 mi WNW 19.6 mph 24.2 mph N/A   Clear
8:15 PM 71.6 °F 50.0 °F 46% 30.06 in 10.0 mi WNW 18.4 mph 24.2 mph N/A   Clear
8:35 PM 69.8 °F 50.0 °F 49% 30.06 in 10.0 mi WNW 12.7 mph - N/A   Clear
8:55 PM 69.8 °F 51.8 °F 53% 30.07 in 10.0 mi WNW 15.0 mph - N/A   Clear
9:15 PM 69.8 °F 51.8 °F 53% 30.08 in 10.0 mi WNW 13.8 mph 20.7 mph N/A   Clear
9:35 PM 68.0 °F 51.8 °F 56% 30.08 in 10.0 mi WNW 10.4 mph - N/A   Clear
9:55 PM 68.0 °F 53.6 °F 60% 30.09 in 10.0 mi WNW 8.1 mph - N/A   Clear
10:15 PM 66.2 °F 53.6 °F 64% 30.10 in 10.0 mi NW 9.2 mph - N/A   Clear
10:35 PM 66.2 °F 53.6 °F 64% 30.10 in 10.0 mi WNW 9.2 mph - N/A   Clear
10:55 PM 68.0 °F 51.8 °F 56% 30.10 in 10.0 mi WNW 13.8 mph - N/A   Clear
11:15 PM 66.2 °F 51.8 °F 60% 30.10 in 10.0 mi WNW 9.2 mph - N/A   Clear
11:35 PM 66.2 °F 50.0 °F 56% 30.10 in 10.0 mi WNW 8.1 mph - N/A   Clear
11:55 PM 64.4 °F 50.0 °F 59% 30.10 in 10.0 mi WNW 12.7 mph - N/A   Clear